Museu de l'Esquerda (Osona)





Hora UTC 02:15
Temperatura 9.1 ºC
Humedad 86.0 %
Presión 1014.7 hPa
Pluja 0.0 mm
Velocidad viento 0.0 km/h
Dirección viento N

Datos diarios 2024-04-18



Hora UTC (invierno +1h; verano +2h)
Temperatura (ºC) Humedad (%) Presión (hPa) Velocidad viento (km/h) Precipitación (mm)
Hora UTC Aire Humedad Presión Vel. Dir. Vel. Max Dir. Intent. máx 5 min.
00:05 10.1 83.0 1015.3 3.2 N 3.2 0.0
00:10 10.1 83.0 1015.3 1.6 N 6.4 0.0
00:15 10.0 83.0 1015.3 0.0 N 6.4 0.0
00:20 10.0 83.0 1015.3 0.0 N 1.6 0.0
00:25 9.9 83.0 1015.2 0.0 N 0.0 0.0
00:30 9.8 83.0 1015.3 0.0 N 0.0 0.0
00:35 9.8 82.0 1015.1 0.0 N 1.6 0.0
00:40 9.7 82.0 1015.2 0.0 N 1.6 0.0
00:45 9.6 83.0 1015.1 0.0 N 0.0 0.0
00:50 9.5 83.0 1015.1 0.0 N 0.0 0.0
00:55 9.4 83.0 1015.0 0.0 N 0.0 0.0
01:00 9.3 83.0 1015.0 0.0 N 0.0 0.0
01:05 9.3 83.0 1015.1 0.0 N 0.0 0.0
01:10 9.2 83.0 1015.1 0.0 N 0.0 0.0
01:15 9.1 83.0 1015.0 0.0 N 0.0 0.0
01:20 9.1 84.0 1014.9 1.6 N 4.8 0.0
01:25 9.1 85.0 1014.8 0.0 S 4.8 0.0
01:30 9.1 85.0 1014.9 3.2 N 4.8 0.0
01:35 9.1 85.0 1014.7 0.0 S 4.8 0.0
01:40 9.1 85.0 1014.8 0.0 N 6.4 0.0
01:45 9.1 85.0 1014.7 4.8 S 9.7 0.0
01:50 9.1 86.0 1014.6 4.8 S 9.7 0.0
01:55 9.1 86.0 1014.6 0.0 N 8.0 0.0
02:00 9.2 86.0 1014.7 1.6 N 4.8 0.0
02:05 9.1 86.0 1014.7 0.0 S 6.4 0.0
02:10 9.1 86.0 1014.6 3.2 N 6.4 0.0
02:15 9.1 86.0 1014.7 0.0 N 4.8 0.0
Máxima 11.0 86.0 1015.3 4.8 S 9.7 0.0
Mínima 9.1 82.0 1014.6
Total 0.0